Stündliche Wetter Abutalipovo

Heute, 25 Juni, Freitag

Zeit Temperatur Niederschläge Wind Luftdruck Luftfeuchtigkeit
00:00 +18°C° 0.5 mm 2 m/S 741 mmHg 93%
01:00 +18°C° 0.5 mm 2 m/S 740 mmHg 96%
02:00 +18°C° 0.5 mm 2 m/S 740 mmHg 96%
03:00 +18°C° 0.5 mm 2 m/S 740 mmHg 96%
04:00 +18°C° 0.5 mm 2 m/S 740 mmHg 97%
05:00 +19°C° 0 mm 2 m/S 740 mmHg 94%
06:00 +20°C° 0 mm 2 m/S 740 mmHg 91%
07:00 +21°C° 0 mm 2 m/S 740 mmHg 89%
08:00 +24°C° 0.3 mm 2 m/S 740 mmHg 84%
09:00 +25°C° 0.3 mm 3 m/S 740 mmHg 79%
10:00 +26°C° 0.3 mm 3 m/S 740 mmHg 74%
11:00 +27°C° 0.1 mm 3 m/S 740 mmHg 67%
12:00 +29°C° 0.1 mm 3 m/S 740 mmHg 60%
13:00 +30°C° 0.1 mm 3 m/S 740 mmHg 53%
14:00 +30°C° 0 mm 3 m/S 739 mmHg 53%
15:00 +30°C° 0 mm 3 m/S 739 mmHg 53%
16:00 +30°C° 0 mm 3 m/S 739 mmHg 54%
17:00 +28°C° 0.8 mm 4 m/S 739 mmHg 65%
18:00 +24°C° 0.8 mm 6 m/S 739 mmHg 77%
19:00 +21°C° 0.8 mm 7 m/S 740 mmHg 88%
20:00 +20°C° 0.4 mm 5 m/S 739 mmHg 90%
21:00 +19°C° 0.4 mm 3 m/S 739 mmHg 92%
22:00 +19°C° 0.4 mm 1 m/S 739 mmHg 94%
23:00 +19°C° 0.2 mm 1 m/S 739 mmHg 94%

Morgen, 26 Juni, Samstag

Zeit Temperatur Niederschläge Wind Luftdruck Luftfeuchtigkeit
00:00 +19°C° 0.2 mm 1 m/S 739 mmHg 94%
01:00 +18°C° 0.2 mm 1 m/S 739 mmHg 94%
02:00 +18°C° 0 mm 1 m/S 739 mmHg 93%
03:00 +18°C° 0 mm 1 m/S 739 mmHg 92%
04:00 +16°C° 0 mm 0 m/S 739 mmHg 91%
05:00 +19°C° 0 mm 1 m/S 739 mmHg 89%
06:00 +20°C° 0 mm 1 m/S 739 mmHg 87%
07:00 +22°C° 0 mm 1 m/S 739 mmHg 85%
08:00 +23°C° 0 mm 2 m/S 739 mmHg 81%
09:00 +25°C° 0 mm 2 m/S 739 mmHg 76%
10:00 +27°C° 0 mm 3 m/S 739 mmHg 71%
11:00 +28°C° 0 mm 3 m/S 739 mmHg 68%
12:00 +29°C° 0 mm 3 m/S 738 mmHg 64%
13:00 +30°C° 0 mm 3 m/S 738 mmHg 61%
14:00 +30°C° 0.1 mm 3 m/S 738 mmHg 62%
15:00 +29°C° 0.1 mm 4 m/S 738 mmHg 63%
16:00 +29°C° 0.1 mm 4 m/S 738 mmHg 64%
17:00 +28°C° 0.5 mm 4 m/S 738 mmHg 70%
18:00 +27°C° 0.5 mm 3 m/S 738 mmHg 76%
19:00 +26°C° 0.5 mm 3 m/S 737 mmHg 82%
20:00 +24°C° 0.1 mm 2 m/S 737 mmHg 84%
21:00 +23°C° 0.1 mm 2 m/S 737 mmHg 85%
22:00 +22°C° 0.1 mm 1 m/S 737 mmHg 87%
23:00 +22°C° 0 mm 1 m/S 738 mmHg 87%

übermorgen, 27 Juni, Sonntag

Zeit Temperatur Niederschläge Wind Luftdruck Luftfeuchtigkeit
00:00 +21°C° 0 mm 1 m/S 738 mmHg 87%
01:00 +21°C° 0 mm 1 m/S 738 mmHg 88%
02:00 +21°C° 0 mm 1 m/S 738 mmHg 88%
03:00 +20°C° 0 mm 1 m/S 738 mmHg 89%
04:00 +20°C° 0 mm 1 m/S 738 mmHg 89%
05:00 +21°C° 0 mm 1 m/S 739 mmHg 86%
06:00 +22°C° 0 mm 1 m/S 739 mmHg 84%
07:00 +23°C° 0 mm 1 m/S 739 mmHg 81%
08:00 +25°C° 0.1 mm 2 m/S 739 mmHg 75%
09:00 +26°C° 0.1 mm 2 m/S 739 mmHg 70%
10:00 +27°C° 0.1 mm 3 m/S 739 mmHg 65%
11:00 +28°C° 0 mm 3 m/S 739 mmHg 60%
12:00 +29°C° 0 mm 3 m/S 740 mmHg 55%
13:00 +29°C° 0 mm 3 m/S 740 mmHg 50%
14:00 +29°C° 0 mm 3 m/S 740 mmHg 50%
15:00 +29°C° 0 mm 3 m/S 740 mmHg 50%
16:00 +29°C° 0 mm 4 m/S 740 mmHg 49%
17:00 +28°C° 0 mm 3 m/S 740 mmHg 56%
18:00 +27°C° 0 mm 2 m/S 740 mmHg 63%
19:00 +26°C° 0 mm 2 m/S 740 mmHg 70%
20:00 +25°C° 0 mm 2 m/S 740 mmHg 72%
21:00 +23°C° 0 mm 2 m/S 740 mmHg 74%
22:00 +22°C° 0 mm 1 m/S 740 mmHg 77%
23:00 +21°C° 0 mm 1 m/S 740 mmHg 76%

28 Juni, Montag

Zeit Temperatur Niederschläge Wind Luftdruck Luftfeuchtigkeit
00:00 +21°C° 0 mm 1 m/S 740 mmHg 76%
01:00 +20°C° 0 mm 1 m/S 740 mmHg 75%
02:00 +20°C° 0 mm 1 m/S 740 mmHg 76%
03:00 +19°C° 0 mm 1 m/S 740 mmHg 76%
04:00 +19°C° 0 mm 1 m/S 740 mmHg 76%
05:00 +21°C° 0 mm 1 m/S 741 mmHg 74%
06:00 +22°C° 0 mm 1 m/S 741 mmHg 71%
07:00 +23°C° 0 mm 1 m/S 741 mmHg 68%
08:00 +25°C° 0 mm 1 m/S 741 mmHg 64%
09:00 +26°C° 0 mm 1 m/S 741 mmHg 59%
10:00 +27°C° 0 mm 1 m/S 741 mmHg 55%
11:00 +28°C° 0 mm 1 m/S 741 mmHg 52%
12:00 +27°C° 0 mm 0 m/S 741 mmHg 49%
13:00 +28°C° 0 mm 0 m/S 741 mmHg 47%
14:00 +28°C° 0 mm 0 m/S 741 mmHg 47%
15:00 +30°C° 0 mm 1 m/S 741 mmHg 48%
16:00 +30°C° 0 mm 1 m/S 741 mmHg 49%
17:00 +30°C° 0 mm 1 m/S 741 mmHg 55%
18:00 +29°C° 0 mm 1 m/S 741 mmHg 61%
19:00 +26°C° 0 mm 0 m/S 740 mmHg 67%
20:00 +27°C° 0 mm 1 m/S 740 mmHg 69%
21:00 +25°C° 0 mm 1 m/S 740 mmHg 72%
22:00 +23°C° 0 mm 1 m/S 740 mmHg 75%
23:00 +23°C° 0 mm 1 m/S 740 mmHg 76%

29 Juni, Dienstag

Zeit Temperatur Niederschläge Wind Luftdruck Luftfeuchtigkeit
00:00 +22°C° 0 mm 1 m/S 740 mmHg 77%
01:00 +22°C° 0 mm 1 m/S 740 mmHg 79%
02:00 +21°C° 0 mm 1 m/S 740 mmHg 80%
03:00 +21°C° 0 mm 1 m/S 740 mmHg 81%
04:00 +20°C° 0 mm 2 m/S 740 mmHg 82%
05:00 +21°C° 0 mm 2 m/S 740 mmHg 79%
06:00 +24°C° 0 mm 2 m/S 740 mmHg 76%
07:00 +25°C° 0 mm 3 m/S 740 mmHg 73%
08:00 +27°C° 0 mm 3 m/S 740 mmHg 69%
09:00 +28°C° 0 mm 3 m/S 740 mmHg 64%
10:00 +29°C° 0 mm 3 m/S 740 mmHg 60%
11:00 +30°C° 0 mm 3 m/S 740 mmHg 58%
12:00 +31°C° 0 mm 3 m/S 740 mmHg 56%
13:00 +33°C° 0 mm 4 m/S 740 mmHg 53%
14:00 +33°C° 0 mm 3 m/S 740 mmHg 52%
15:00 +33°C° 0 mm 3 m/S 739 mmHg 51%
16:00 +32°C° 0 mm 2 m/S 739 mmHg 51%
17:00 +31°C° 0 mm 3 m/S 739 mmHg 57%
18:00 +29°C° 0 mm 3 m/S 739 mmHg 63%
19:00 +28°C° 0 mm 3 m/S 739 mmHg 70%
20:00 +26°C° 0.1 mm 2 m/S 739 mmHg 73%
21:00 +25°C° 0.1 mm 1 m/S 739 mmHg 76%
22:00 +21°C° 0.1 mm 0 m/S 739 mmHg 80%
23:00 +23°C° 0 mm 1 m/S 739 mmHg 81%

30 Juni, Mittwoch

Zeit Temperatur Niederschläge Wind Luftdruck Luftfeuchtigkeit
00:00 +23°C° 0 mm 1 m/S 739 mmHg 81%
01:00 +22°C° 0 mm 1 m/S 738 mmHg 82%
02:00 +22°C° 0 mm 1 m/S 738 mmHg 83%
03:00 +21°C° 0 mm 2 m/S 739 mmHg 83%
04:00 +21°C° 0 mm 2 m/S 739 mmHg 84%
05:00 +23°C° 0 mm 2 m/S 739 mmHg 80%
06:00 +25°C° 0 mm 2 m/S 739 mmHg 76%
07:00 +26°C° 0 mm 2 m/S 739 mmHg 71%
08:00 +28°C° 0 mm 2 m/S 739 mmHg 65%
09:00 +30°C° 0 mm 3 m/S 739 mmHg 58%
10:00 +31°C° 0 mm 3 m/S 739 mmHg 51%
11:00 +33°C° 0 mm 3 m/S 739 mmHg 48%
12:00 +34°C° 0 mm 4 m/S 739 mmHg 46%
13:00 +35°C° 0 mm 4 m/S 738 mmHg 43%
14:00 +35°C° 0 mm 4 m/S 738 mmHg 44%
15:00 +35°C° 0 mm 4 m/S 738 mmHg 45%
16:00 +35°C° 0 mm 4 m/S 738 mmHg 46%
17:00 +34°C° 0 mm 3 m/S 737 mmHg 53%
18:00 +33°C° 0 mm 3 m/S 737 mmHg 59%
19:00 +31°C° 0 mm 2 m/S 737 mmHg 65%
20:00 +29°C° 0 mm 2 m/S 737 mmHg 66%
21:00 +28°C° 0 mm 2 m/S 737 mmHg 68%
22:00 +26°C° 0 mm 2 m/S 736 mmHg 69%
23:00 +26°C° 0 mm 2 m/S 736 mmHg 69%
Mehr zeigen

Wir brauchen deine Erlaubnis

Meteoprog und unser Service Anbieter werden persönliche Daten aufbewahren, so wie Cookies, Geräte Bezeichnung oder ähnliche Technologien von deinem Gerät und Prozess, so wie Persönliche Daten Inhalte und Werbungen, genauso wie social Media und den Verkehr zu analysieren.

  • Aufbewahrung und/oder Zugang zu deiner Geräte Informationen.

    Cookies, Geräte Bezeichnung oder andere Informationen, können aufbewahrt oder Zugang zu deinem Gerät erhalten, für den Grund, der oben angegeben wird.

  • Personalisierte Werbung und Inhalte, Messungen, Einblick in das Publikum und Produkt Entwicklung.

    Werbungen und Inhalte können personalisiert werden, basierend auf ein Profil. Mehr Daten können besser personalisierte Werbungen und Inhalte hinzufügen. Werbung und Inhalte können gezeigt und gemessen werden. Einblicke über das Publikum, welche die Werbung gesehen haben und den Inhalt, können abgeleitet werden. So wie Daten können genutzt werden, um es zu verbessern oder die Benutzer Erfahrung zu verbessern das System und die Software.

Wenn du “Ich stimme zu” klickst, erlaubst du uns, die Cookies zu benutzen die Geräte Bezeichnung, den Web oder ähnliche Technologien zu benutzen. Deine Settings, können in deinem Gerät bei deinem Browser geändert werden.

Für den bestimmten Zweck, berechtigten Interessen beruhen darauf, mehr als auf den Inhalt. Du kannst mehr darüber in unseren Privaten und Cookie Politik lesen.